Home > Weather > Bergheim > Past weeks

Flag for Germany Past Weather in Bergheim, North Rhine-Westphalia, Germany — Yesterday and Last 2 Weeks

Now
68 °F

Fog.


Feels Like: 68 °F
Forecast: 63 / 77 °F
Wind: 8 mph from Northwest

Location: Noervenich

Current Time: Jul 24, 2016 at 10:49:39 AM

Latest Report: Jul 24, 2016 at 9:53 AM


Visibility: 2 mi

Pressure: 30.12 "Hg

Humidity: 88%

Dew Point: 64 °F

Location of BergheimLocation

Past Weather in Bergheim — Graph

°F

Bergheim Temperature Yesterday

Maximum temperature yesterday: 73 °F (at 1:20 PM)
Minimum temperature yesterday: 66 °F (at 4:20 AM)
Average temperature yesterday: 70 °F

High & Low Weather Summary for the Past Weeks

 TemperatureHumidityPressure
High95 °F (Jul 20, 3:20 PM)100% (Jul 24, 3:20 AM)30.33 "Hg (Jul 24, 3:20 AM)
Low50 °F (Jul 14, 3:20 AM)26% (Jul 20, 3:20 PM)29.77 "Hg (Jul 10, 9:20 PM)
Average69 °F69%30.06 "Hg
* Reported Jul 9 9:20 AM — Jul 24 9:53 AM, Bergheim, Weather by CustomWeather, © 2016

Note: Actual official high and low records may vary slightly from our data, if they occured in-between our weather recording intervals... More about our weather records

Advertising

Bergheim Weather History for the Previous 24 Hours

Scroll right to see more
 ConditionsComfort  
Time TempWeatherWind HumidityBarometerVisibility
9:53 AM
Sun, Jul 24
68 °FFog.8 mph88%30.12 "Hg2 mi
9:20 AM68 °FFog.9 mph88%30.12 "Hg2 mi
8:20 AM66 °FFog.6 mph94%30.12 "Hg2 mi
7:20 AM66 °FFog.8 mph94%30.12 "Hg2 mi
6:20 AM66 °FFog.7 mph94%30.09 "Hg1 mi
5:20 AM66 °FFog.7 mph94%30.09 "Hg1 mi
4:20 AM66 °FFog.8 mph94%30.09 "Hg3 mi
3:48 AM66 °FFog.9 mph94%30.09 "Hg3 mi
3:20 AM64 °FFog.9 mph100%30.09 "Hg3 mi
2:20 AM64 °FFog.8 mph94%30.09 "Hg3 mi
1:20 AM66 °FPassing clouds.6 mph94%30.09 "Hg6 mi
12:20 AM68 °FPassing clouds.3 mph88%30.09 "HgN/A
11:20 PM
Sat, Jul 23
68 °FPassing clouds.3 mph88%30.09 "HgN/A
10:20 PM68 °FScattered clouds.3 mph88%30.09 "HgN/A
9:20 PM70 °FScattered clouds.2 mph88%30.09 "HgN/A
8:20 PM73 °FBroken clouds.2 mph78%30.07 "HgN/A
7:20 PM73 °FBroken clouds.5 mph74%30.07 "HgN/A
6:20 PM73 °FBroken clouds.2 mph78%30.07 "Hg5 mi
5:20 PM73 °FBroken clouds.5 mph78%30.07 "Hg5 mi
4:20 PM70 °FBroken clouds.6 mph94%30.07 "Hg4 mi
3:20 PM70 °FFog.8 mph83%30.09 "Hg3 mi
2:20 PM72 °FLight rain. Fog.5 mph83%30.07 "Hg2 mi
2:01 PM73 °FMostly cloudy.7 mph78%30.07 "Hg2 mi
1:20 PM73 °FMostly cloudy.7 mph78%30.07 "Hg4 mi
12:20 PM72 °FMostly cloudy.6 mph83%30.07 "Hg4 mi
11:20 AM70 °FMostly cloudy.5 mph88%30.07 "Hg4 mi
10:20 AM70 °FMostly cloudy.7 mph83%30.07 "Hg4 mi
Weather by CustomWeather, © 2016

See weather overviewHow to use our weather pages